Current Version              Previous Version:    01  02  03  04  05  06  07  08  09  10  11  12  13  14  15  16  17  18  19  20  21  22  23  24  25  26  27  28  29  30  
   31  32  33  34  35  36  37  38  39  40  41  42  43  44  45  46  47  48  49  50  51  52  53  54  55  56  57  58  59  60  

[Printable]
834
ASUS44 KEWX 250910
RWRTX
SOUTH TEXAS REGIONAL WEATHER ROUNDUP
NATIONAL WEATHER SERVICE AUSTIN/SAN ANTONIO TX
400 AM CDT FRI JUL 25 2014

NOTE: "FAIR" INDICATED FEW OR NO CLOUDS BELOW 12,000 FEET WITH NO
SIGNIFICANT WEATHER AND/OR OBSTRUCTIONS TO VISIBILITY.

* - THESE STATIONS ARE NOT NWS OR FAA STATIONS...AND ARE NOT SUBJECT
    TO NWS AND FAA QUALITY CONTROL.

TXZ171-172-183>190-251000-
TEXAS HILL COUNTRY AND EDWARDS PLATEAU

CITY           SKY/WX    TMP DP  RH WIND       PRES   REMARKS
JUNCTION       CLEAR     71  66  84 CALM      30.06S
*LLANO         CLEAR     72  70  94 CALM      30.05S
BURNET         CLEAR     75  68  78 CALM      30.04F
*HORSESHOE BAY CLEAR     73  66  78 CALM      30.02S
*KERRVILLE     CLEAR     73  69  87 CALM      30.06S
*FREDERICKSBRG CLEAR     72  66  83 CALM      30.06S
*ROCKSPRINGS   CLEAR     72  68  88 SE5       30.10S
*BOERNE STAGE  CLEAR     73  66  78 CALM      30.06S
*CASTROVILLE   CLEAR     75  68  78 CALM      30.03F
HONDO          CLEAR     75  70  84 SE6       30.04F
*UVALDE        CLEAR     74  70  87 CALM      30.03S
DEL RIO        CLEAR     79  67  66 E7        30.00S
LAUGHLIN AFB   CLEAR     75  68  79 E8        30.01S
CARRIZO SPRGS  PTCLDY    75  70  83 E3        29.98S
$$

TXZ173-191>194-202-209-217>225-228-251000-
CENTRAL AND SOUTH CENTRAL TEXAS

CITY           SKY/WX    TMP DP  RH WIND       PRES   REMARKS
GEORGETOWN     CLEAR     75  72  88 S6        30.02S
AUSTIN/BERGSTM PTCLDY    75  71  87 S7        30.00F
AUSTIN/MABRY   CLEAR     77  71  82 S5        30.01F
*AUSTIN/EXEC   CLEAR     73  72  94 S5        30.01S
*LAGO VISTA    CLEAR     77  69  76 S6        30.03S
SAN MARCOS     CLEAR     75  66  73 SW5       30.03S
NEW BRAUNFELS  CLEAR     74  70  87 SW3       30.01S
RANDOLPH AFB   CLEAR     76  70  80 SW5       30.02F
PT SAN ANTONIO CLEAR     75  70  84 SE3       30.01F
SAN ANTONIO    PTCLDY    78  71  79 S6        30.02F
STINSON FIELD  CLEAR     76  71  85 CALM      30.00F
*PLEASANTON    CLEAR     75  71  88 CALM      30.01S
*LA GRANGE     CLEAR     77  75  93 CALM      29.99S
*GIDDINGS      CLEAR     75  72  89 CALM      30.04F
*GONZALES      CLEAR     77  74  91 S3        30.00S
$$

TXZ163>164-176>182-195>201-210>213-226-227-235-251000-
SOUTHEAST TEXAS

CITY           SKY/WX    TMP DP  RH WIND       PRES   REMARKS
COLLEGE STN    CLEAR     77  73  87 S5        30.00S
*BRYAN         CLEAR     77  74  90 S5        29.99S
*CALDWELL      CLEAR     73  73 100 S6        30.03S
*CROCKETT      CLEAR     73  73 100 CALM      30.04S FOG
*BRENHAM       CLEAR     77  74  88 S5        30.00F
HUNTSVILLE     CLEAR     77  72  84 CALM      30.01S
CONROE         CLEAR     72  71  97 CALM      30.00F
HOUSTON BUSH   PTCLDY    75  73  93 CALM      30.00F
HOUSTON HOBBY  PTCLDY    76  73  91 CALM      29.99F
*HOUSTON SW AP FOG       71  71 100 CALM      30.01S VSB 1/4
PEARLAND       CLEAR     76  73  91 CALM      30.01S
HOUSTON HOOKS  CLEAR     75  74  96 CALM      30.00F
ELLINGTON FLD  NOT AVBL
SUGAR LAND     CLEAR     75  74  96 CALM      30.00S FOG
*HOUSTON EXEC  PTCLDY    75  75 100 CALM      30.01F
*CLEVELAND MUN CLEAR     74  73  98 CALM      30.00F FOG
*WHARTON       CLEAR     74  73  96 CALM      30.01S FOG
$$

TXZ214>216-236>238-251000-
THE UPPER TEXAS COAST

CITY           SKY/WX    TMP DP  RH WIND       PRES   REMARKS
*ORANGE        CLEAR     76  76 100 CALM      30.00S FOG
PORT ARTHUR    CLEAR     78  75  90 CALM      29.98F
GALVESTON      PTCLDY    81  76  84 SW5       30.00S
ANGLETON       FOG       73  72  96 CALM      29.99S VSB 1/2
*BAY CITY      CLEAR     76  76 100 CALM      30.00S FOG
PALACIOS       CLEAR     82  75  79 S7        29.98F
$$

TXZ229>234-239>247-251000-
TEXAS COASTAL BEND AND RIO GRANDE PLAINS

CITY           SKY/WX    TMP DP  RH WIND       PRES   REMARKS
VICTORIA       CLEAR     77  75  93 S6        30.00F
*BEEVILLE      CLEAR     75  75  99 CALM      30.00S
ROCKPORT       PTCLDY    82  76  81 S5        29.98S
*PORT ARANSAS  MOCLDY    81  77  87 S6        29.98F
*PORT LAVACA   CLEAR     75  73  93 S3        29.99F
*INGLESIDE     PTCLDY    82  75  80 S6        29.98F
CORPUS CHRISTI PTCLDY    78  74  87 SE6       29.98F
CORPUS NAS     PTCLDY    82  78  88 S8        29.98S HX  91
*ROBSTOWN      CLEAR     78  75  92 SE5       29.99S
ALICE          CLEAR     77  75  93 CALM      29.98F
KINGSVILLE NAS CLEAR     79  77  94 S7        29.98F
COTULLA        CLEAR     78  72  81 SE6       29.99F
*FAITH RANCH   CLEAR     79  72  78 E5        30.00S
LAREDO         CLEAR     82  72  72 E8        30.00S
$$

TXZ248>255-251000-
DEEP SOUTH TEXAS

CITY           SKY/WX    TMP DP  RH WIND       PRES   REMARKS
BROWNSVILLE    CLEAR     79  76  90 S7        29.98F
PORT ISABEL    CLEAR     82  76  81 S8        29.97F
*SOUTH PADRE     N/A     81  77  89 S3        29.98F
HARLINGEN      CLEAR     79  77  94 S8        29.96F
*HEBBRONVILLE  CLEAR     76  73  90 E5        30.00F
MCALLEN        CLEAR     80  76  87 SE8       29.97F
*WESLACO       PTCLDY    80  74  81 S6        29.96F
FALFURRIAS     CLEAR     67  67 100 SE3       29.97F
EDINBURG       PTCLDY    81  75  82 SE3       29.97F
*ZAPATA        NOT AVBL
$$

TXZ213>215-236>238-242>244-246-247-251-254-255-251000-
CMAN STATIONS

STATION/POSITION TIME  TEMP    WIND        PRES    WAVE
                       AIR SEA DIR/SP/G            HT/PER
                 (UTC) (F)     (DEG/KT/KT) (MB)    (FT/S)
SABINE PASS      0900   81 87  280/  2/  4 1015.5
SEA RIM ST PARK  0900   81     320/  3/  3 1015.7
NORTH JETTY/GLS  0900   84 92  260/  7/  8   N/A
EAGLE POINT      0900   79 89  290/  3/  5 1015.8
MORGANS POINT    0900   81 91  280/  4/  6 1015.6
MISSION/ARANSAS  0800   83     160/ 13     1016.0
PORT O`CONNOR    0900          180/ 12/ 13   N/A
PORT ARANSAS     0900   82 86  150/ 10/ 11 1015.8
MALAQUITE BEACH  0900   82 84  150/  9/ 10 1014.5
BAFFIN BAY       0900   82 82  170/ 12/ 15 1015.0
PORT ISABEL      0900   82 82  160/  9/ 11 1015.4
$$

GMZ080-GMZ150>470-251000-
OFFSHORE BUOY REPORTS

STATION/POSITION TIME  TEMP    WIND        PRES    WAVE
                       AIR SEA DIR/SP/G            HT/PER
                 (UTC) (F)     (DEG/KT/KT) (MB)    (FT/S)
20 E GALVESTON   0800   84 86  210/ 10/ 12 1015.5
90 E PT ARANSAS  0900   83 83  180/  8/ 10 1016.1    1/ 9
35 NE PT MANSFLD 0900   82 80  190/  8/ 10 1015.2    2/ 3
200 E PT ISABEL  0900   84 85  180/ 10/ 12 1015.9    1/ 8
$$